Погода в Верхнем Бемыже

Россия / Удмуртская Республика     56°13′39″N   51°42′28″E
темп.,
°C
ветер,
м/с
пор.,
м/с
влажн.,
%
обл.,
%
осадки,
мм/ч
давл.,
гПа
погр.,
м
31 июля, сб
сб3101:00+20ююз2382100 0.0 100551
04:00+17ююз2395100 1.5 100568
07:00+18ююв2296100 2.3 100559
10:00+20ююз368995 2.4 1004449
13:00+26юз586284 0.1 10031410
16:00+24зюз6107775 2.2 10031028
19:00+22з51175100 0.4 1004732
22:00+18зюз36910 0.6 100590
1 августа, вс
вс101:00+17зюз39890 0.1 1007171
04:00+15зюз23904 0.1 100842
07:00+18юз3107843 0.0 1009301
10:00+23зсз58520 0.0 1010923
13:00+26з694012 0.0 10102211
16:00+27з6941100 0.0 10112399
19:00+23сз246445 0.0 1012135
22:00+21зюз116391 0.0 101212
2 августа, пн
пн201:00+19ююз226967 0.0 101340
04:00+17юз227416 0.0 101416
07:00+19юз256873 0.0 1015151
10:00+25юз465079 0.0 1014628
13:00+26юз2548100 0.0 1014861
16:00+30юз463763 0.0 10121618
19:00+26ююз345554 0.0 101283
22:00+22ю335584 0.0 101228
3 августа, вт
вт301:00+20ю22585 0.0 101211
04:00+19ююв22629 0.0 101212
07:00+21ю26590 0.0 1011150
10:00+29ю46405 0.0 1010505
13:00+33ююз47305 0.0 10091758
16:00+35юз5725100 0.0 10073232
19:00+30ю334457 0.0 100770
22:00+25зюз613548 0.1 1009311
4 августа, ср
ср401:00+21юз2270100 0.0 101012
04:00+19с118098 0.0 101011
07:00+22всв126952 0.0 101081
10:00+26с1153100 0.0 1010475
13:00+29ссз3348100 0.0 10101125
16:00+27сз6751100 0.0 1010921
19:00+24сз246278 0.0 1011124
22:00+19сз227798 0.0 101215